Location: Palo Alto
(37.4420°N, 122.1420°W)
Time: 09:37:05
(UTC-07:00)

X-37B - Pass Details

Date: 10 August 2020
Orbit: 386 x 387 km, 45.0° (Epoch: 18 September)

Event Time Altitude Azimuth Distance (km) Brightness Sun altitude
Rises 21:06:48 0° 270° (W) 2,259 5.6 -11.8°
Reaches altitude 10° 21:09:02 10° 282° (WNW) 1,407 4.7 -12.2°
Maximum altitude 21:11:51 28° 344° (NNW) 751 2.5 -12.6°
Drops below altitude 10° 21:14:40 10° 47° (NE) 1,410 3.3 -13.1°
Enters shadow 21:15:51 - 55° (NE) 1,852 3.8 -13.3°
